This is the latest recevied weather packets stored in our database for station/object DG5MNJ. If no packets are shown the sender has not sent any weather packets the latest 10 day(s).
| Time | Temp. | Humidity | Pressure | Rain* | Wind** | Luminosity | Snow |
|---|---|---|---|---|---|---|---|
| 1777781702 | 9.44° C | 70% | 1014.1 hPa | 0 mm | - | 21 W/m² | - |
| 1777779902 | 8.33° C | 68% | 1014.1 hPa | 0 mm | - | 0 W/m² | - |
| 1777773601 | 9.44° C | 68% | 1014.5 hPa | 0 mm | - | 0 W/m² | - |
| 1777771502 | 10.56° C | 63% | 1014.1 hPa | 0 mm | - | 0 W/m² | - |
| 1777770302 | 10.56° C | 62% | 1014.6 hPa | 0 mm | - | 0 W/m² | - |
| 1777765503 | 12.22° C | 54% | 1014.5 hPa | 0 mm | - | 0 W/m² | - |
| 1777761902 | 14.44° C | 43% | 1015.3 hPa | 0 mm | - | 0 W/m² | - |
| 1777760402 | 15.56° C | 41% | 1015.5 hPa | 0 mm | - | 0 W/m² | - |
| 1777759822 | 15.56° C | 41% | 1015.4 hPa | 0 mm | - | 0 W/m² | - |
| 1777759502 | 15.56° C | 41% | 1015.5 hPa | 0 mm | - | 0 W/m² | - |
| 1777758611 | 16.11° C | 39% | 1015.4 hPa | 0 mm | - | 0 W/m² | - |
| 1777755603 | 16.67° C | 40% | 1015.7 hPa | 0 mm | - | 0 W/m² | - |
| 1777751722 | 18.33° C | 38% | 1016.2 hPa | 0 mm | - | 0 W/m² | - |
| 1777748703 | 19.44° C | 35% | 1015.6 hPa | 0 mm | - | 0 W/m² | - |
| 1777748102 | 20° C | 35% | 1015.7 hPa | 0 mm | - | 0 W/m² | - |
| 1777746002 | 21.11° C | 31% | 1015.6 hPa | 0 mm | - | 0 W/m² | - |
| 1777744822 | 22.22° C | 29% | 1015.6 hPa | 0 mm | - | 21 W/m² | - |
| 1777743602 | 22.78° C | 29% | 1015.5 hPa | 0 mm | - | 42 W/m² | - |
| 1777742702 | 23.33° C | 28% | 1015.5 hPa | 0 mm | - | 58 W/m² | - |
| 1777742422 | 23.33° C | 27% | 1015.4 hPa | 0 mm | - | 66 W/m² | - |
| 1777741502 | 24.44° C | 26% | 1015.4 hPa | 0 mm | - | 128 W/m² | - |
| 1777739402 | 24.44° C | 27% | 1015.7 hPa | 0 mm | - | 273 W/m² | - |
| 1777738802 | 24.44° C | 28% | 1015.8 hPa | 0 mm | - | 296 W/m² | - |
| 1777735201 | 24.44° C | 25% | 1016.4 hPa | 0 mm | - | 374 W/m² | - |
| 1777733403 | 25° C | 24% | 1016.8 hPa | 0 mm | - | 502 W/m² | - |
* Rain latest hour (hover to see other rain measurements)
** Current wind speed in m/s (hover to see current wind gust speed)